Terminal Aerodrome Forecast
Issued by NWS

Home | Current Version | Previous Version | Text Only | Print | Product List | Glossary On
Versions: 1 2 3 4 5 6 7 8 9 10 11 12 13 14 15 16 17 18 19 20 21 22 23
000
FTUS43 KLSX 262100 AAB
TAFCPS
TAF AMD
KCPS 262117Z 2621/2718 17008KT P6SM BKN060
     FM262200 19004KT P6SM BKN025
     FM270000 VRB04KT P6SM SCT030
     FM270400 31010KT P6SM BKN025=

USA.gov is the U.S. government's official web portal to all federal, state and local government web resources and services.